Location: Camp Crooked Creek
(37.9149°N, 85.6607°W)
Time: 09:35:50
(UTC-05:00)

Daily predictions for brighter satellites

Satellite Brightness Start Highest point End
(mag) Time Altitude Azimuth Time Altitude Azimuth Time Altitude Azimuth
NOSS 0 Rocket 4.3 18:10:02 10° SSW 18:16:14 70° WNW 18:22:28 10° NNE
Cosmos 2219 Rocket 3.3 18:12:20 10° SW 18:17:43 45° WNW 18:23:07 10° N
CZ-2C R/B 2.7 18:14:32 10° S 18:19:30 77° WSW 18:24:20 10° NNW
Lacrosse 5 rocket 1.1 18:16:31 10° NW 18:20:18 69° NE 18:24:17 10° SE
Cosmos 2333 Rocket 3.1 18:19:03 10° SW 18:24:31 51° WNW 18:30:03 10° NNE
Cosmos 1633 Rocket 4.3 18:24:16 10° SE 18:27:33 21° E 18:30:51 10° NE
COSMOS 2441 4.3 18:23:49 10° SSE 18:28:39 72° ENE 18:33:29 10° N
Cosmos 1726 2.2 18:25:26 10° N 18:29:13 84° W 18:32:59 10° S
CENTAUR R/B 4.4 18:25:50 10° W 18:30:46 23° NW 18:36:10 10° NNE
MSX 3.9 18:26:09 10° SSE 18:31:52 90° ENE 18:37:37 10° NNW
Cosmos 2278 Rocket 2.5 18:28:27 10° NNW 18:34:08 77° WSW 18:39:47 10° SSE
Transit 2A Rocket 4.5 18:29:59 10° NNW 18:34:19 87° ENE 18:38:39 10° SSE
Cosmos 1455 3.4 18:33:44 10° NNE 18:36:45 22° ENE 18:39:45 10° SE
SMAP 4.0 18:35:25 10° S 18:39:56 52° W 18:44:30 10° NNW
USA 229 DEB 4.2 18:33:57 10° S 18:40:15 41° ESE 18:46:38 10° NE
USA 229 4.2 18:34:03 10° S 18:40:21 40° ESE 18:46:43 10° NE
Abrixas 4.4 18:38:10 10° WNW 18:40:25 20° NNW 18:42:42 10° NNE
Timation 1 Rocket 4.4 18:34:28 10° NNW 18:40:28 64° ENE 18:46:24 10° SE
Cosmos 1703 3.3 18:40:11 10° S 18:43:59 57° E 18:47:50 10° NNE
Cosmos 1184 Rocket 3.7 18:42:34 10° SSE 18:45:28 28° E 18:48:23 10° NNE
CZ-4 R/B 3.6 18:43:24 10° SSW 18:46:49 29° W 18:50:16 10° NW
SJ-6B 3.9 18:45:06 10° SE 18:48:30 26° ENE 18:51:56 10° NNE
Iridium 4 Rocket 4.1 18:48:58 10° SE 18:52:29 23° E 18:55:52 10° NNE
Cosmos 2151 4.3 18:49:26 10° SSW 18:53:25 42° W 18:57:24 10° N
YAOGAN 1 4.1 18:49:26 10° S 18:53:31 40° W 18:57:37 10° NNW
Cosmos 1707 Rocket 3.6 18:50:35 10° N 18:54:49 53° E 18:59:04 10° SSE
Cosmos 2237 Rocket 3.6 18:50:53 10° SW 18:56:02 37° WNW 19:01:15 10° N
OTV 4 3.7 18:55:29 10° SW 18:56:17 11° SSW 18:57:06 10° SSW
Cosmos 1300 4.4 18:53:12 10° NNW 18:56:44 36° W 19:00:16 10° SSW
COSMO-SKYMED 1 2.7 18:52:33 10° N 18:56:55 81° WNW 19:01:14 10° SSW
Cosmos 2369 Rocket 3.9 18:58:30 10° NNE 19:01:00 14° NE 19:01:00 14° NE
H-2A ROCKET BODY 4.2 18:28:54 10° WSW 19:03:25 52° S 19:09:17 13° ESE
Cosmos 1666 Rocket 3.5 18:59:11 10° S 19:03:29 67° E 19:07:50 10° NNE
SL-16 R/B 2.4 18:58:41 10° SSW 19:04:19 74° WNW 19:10:00 10° NNE
Cosmos 1538 Rocket 4.0 19:00:01 10° SSW 19:05:18 90° NW 19:10:41 10° NNE
FREGAT/IRIS 3.2 19:04:14 10° SE 19:07:01 33° ENE 19:09:49 10° N
Haruka 4.2 19:03:12 10° WSW 19:07:08 49° SSE 19:16:08 15° E
Cosmos 1484 Rocket 4.1 19:08:03 10° S 19:11:48 43° W 19:15:37 10° NNW
Cosmos 923 Rocket 4.2 19:08:12 10° S 19:13:09 45° ESE 19:16:59 16° NE
Resurs 01 Rocket 2.5 19:12:15 22° E 19:13:41 27° ENE 19:17:25 10° NNE
Cosmos 1340 Rocket 4.4 19:10:58 10° SW 19:14:36 36° WNW 19:18:14 10° N
Cosmos 1933 Rocket 4.3 19:11:12 10° SSE 19:15:06 31° E 19:16:30 26° ENE
Cosmos 2297 4.0 19:13:32 10° NNW 19:19:14 70° WSW 19:24:55 10° SSE
Cosmos 1680 Rocket 3.9 19:14:48 10° S 19:19:37 39° ESE 19:22:05 24° NE
Meteor 1-28 Rocket 3.9 19:17:19 10° N 19:20:58 54° WNW 19:24:36 10° SSW
Lacrosse 4 Rocket 1.6 19:20:27 10° NNW 19:24:21 44° ENE 19:25:17 37° E
Tiangong 1 1.6 19:26:01 10° SW 19:28:39 41° SSE 19:28:39 41° SSE
FENGYUN 3A 3.8 19:24:55 10° SE 19:30:00 46° ENE 19:35:07 10° N
METEOR-M 4.1 19:24:53 10° SSE 19:30:14 90° NNE 19:35:37 10° NNW
Cosmos 1869 3.2 19:27:10 10° N 19:31:12 65° E 19:35:12 10° SSE
NOSS 3-1 (C) 4.0 19:26:58 10° S 19:32:00 33° ESE 19:32:51 32° E
Cosmos 1470 Rocket 3.4 19:32:16 10° S 19:36:33 62° E 19:38:13 35° NNE
NOAA 12 4.4 19:33:35 10° S 19:38:48 70° WSW 19:44:03 10° NNW
Cosmos 773 Rocket 4.3 19:34:48 10° SSW 19:39:55 65° WNW 19:45:04 10° NNE
Cosmos 1943 3.8 19:37:12 10° S 19:41:55 35° ESE 19:41:55 35° ESE
USA 215 3.3 19:40:52 31° ESE 19:44:00 60° NE 19:50:26 10° NW
Cosmos 2242 Rocket 3.6 19:41:54 10° N 19:46:21 79° W 19:50:47 10° S
Lacrosse 5 4.2 19:47:12 10° N 19:47:19 10° N 19:47:19 10° N
Cosmos 1626 4.4 19:45:20 10° SW 19:48:28 25° WNW 19:51:37 10° NNW
ATLAS 5 CENTAUR R/B 4.2 19:45:29 10° N 19:47:23 15° NNE 19:47:23 15° NNE
Cosmos 2026 Rocket 3.9 19:44:47 10° S 19:50:52 60° E 19:55:59 15° NNE
Cosmos 2112 Rocket 3.8 19:50:52 10° S 19:56:02 76° ESE 19:57:11 54° NE
ALOS 2.2 19:56:26 10° S 20:01:05 84° WSW 20:05:47 10° NNW
Meteor 2-20 4.3 20:00:36 10° S 20:06:40 73° E 20:09:17 36° NNE
Cosmos 1943 Rocket 4.4 20:02:38 10° N 20:02:44 10° N 20:02:44 10° N
Cosmos 1603 4.1 20:03:39 10° SW 20:09:10 59° WNW 20:12:04 28° N
FengYun 1-2 T 4.4 20:05:14 10° S 20:10:47 71° WSW 20:16:18 10° NNW
Spot 2 Rocket 4.2 20:22:57 10° S 20:27:51 52° W 20:32:47 10° NNW
NOSS 3-1 (A) 4.2 20:38:51 10° SSW 20:42:21 40° SSW 20:42:21 40° SSW
Cosmos 2369 Rocket 3.7 20:40:24 10° NNW 20:42:51 27° NNW 20:42:51 27° NNW
Resurs 01 Rocket 3.7 20:49:47 25° WSW 20:50:04 25° W 20:53:46 10° NW
Lacrosse 4 Rocket 4.5 21:00:45 10° WNW 21:01:45 12° W 21:01:45 12° W
